Location: Deneb Observatory
(47.2267°N, 100.4953°W)
Time: 09:06:13
(UTC-06:00)

Amateur Radio Satellites - All Passes

Search period start: 23 November 2017 08:36
Search period end: 24 November 2017 08:36
Location: Deneb Observatory, 47.2267°N, 100.4953°W

Satellite Date Start Highest point End Downlink Frequencies (MHz)
Time Altitude Azimuth
PCSat 23 Nov 08:39:05 08:44:24 51° 50° (NE) 08:49:41 145.827
XW-2A 23 Nov 08:54:59 08:58:18 58° 286° (WNW) 09:01:37 145.665 - 145.685
AO-73 23 Nov 08:59:49 09:03:57 66° 101° (ESE) 09:08:06 145.935
CUBEBUG 2 23 Nov 09:10:14 09:13:48 28° 293° (WNW) 09:17:21 437.445
Oscar 11 23 Nov 09:13:31 09:17:51 63° 102° (ESE) 09:22:08 .
UNISAT 6 23 Nov 09:16:56 09:21:24 58° 72° (ENE) 09:25:46 437.425
TIGRISAT 23 Nov 09:20:38 09:25:04 58° 72° (ENE) 09:29:26 435.000
CUTE 1.7 + AOD 2 23 Nov 09:26:51 09:29:00 14° 300° (WNW) 09:31:09 437.475
PRISM 23 Nov 09:33:14 09:36:54 31° 67° (ENE) 09:40:35 437.425
BEESAT 3 23 Nov 09:46:21 09:49:19 20° 36° (NE) 09:52:15 437.485
ZACube-1 23 Nov 09:46:43 09:50:31 36° 291° (WNW) 09:54:19 437.345
AAUSAT CUBESAT 2 23 Nov 09:51:11 09:54:28 22° 295° (WNW) 09:57:44 437.432
SEEDS 23 Nov 09:53:09 09:54:44 12° 302° (WNW) 09:56:18 437.485
DELFI C3 23 Nov 09:58:49 10:02:38 41° 98° (E) 10:06:25 145.870
FO-29 23 Nov 10:02:31 10:07:47 23° 274° (W) 10:13:30 435.910
UWE-3 23 Nov 10:02:56 10:05:23 15° 299° (WNW) 10:07:49 435.000/436.395/437.385
HO-68 23 Nov 10:03:43 10:09:01 23° 308° (NW) 10:14:18 435.675
AO-85 23 Nov 10:03:59 10:05:17 11° 20° (NNE) 10:06:36 145.980
EO-79 23 Nov 10:14:12 10:15:42 12° 58° (ENE) 10:17:11 145.935-145.965
NANOSAT C BR1 23 Nov 10:16:17 10:17:20 11° 57° (ENE) 10:18:22 145.865
AIST 2D 23 Nov 10:19:59 10:22:53 25° 69° (ENE) 10:25:49 435.315
PCSat 23 Nov 10:22:56 10:27:33 29° 250° (WSW) 10:32:09 145.827
EO-88 23 Nov 10:27:12 10:30:42 41° 99° (E) 10:34:10 145.990 - 145.960
POLYITAN 1 23 Nov 10:28:57 10:31:32 16° 61° (ENE) 10:34:08 437.675
Max Valier Satellite 23 Nov 10:34:25 10:38:06 75° 104° (ESE) 10:41:46 145.860
FALCONSAT 3 23 Nov 10:36:36 10:38:11 12° 173° (S) 10:39:46 435.103
AO-73 23 Nov 10:37:29 10:39:42 14° 299° (WNW) 10:41:56 145.935
Oscar 11 23 Nov 10:50:51 10:53:30 16° 299° (WNW) 10:56:10 .
QB50P2 23 Nov 10:51:14 10:54:51 28° 66° (ENE) 10:58:28 145.880/145.840
UNISAT 6 23 Nov 10:55:31 10:58:27 17° 270° (W) 11:01:20 437.425
TIGRISAT 23 Nov 10:59:11 11:02:06 17° 269° (W) 11:04:59 435.000
BEESAT 2 23 Nov 11:03:20 11:06:55 29° 41° (NE) 11:10:28 435.950
PRISM 23 Nov 11:08:38 11:12:09 27° 265° (W) 11:15:43 437.425
BEESAT 3 23 Nov 11:23:19 11:27:16 68° 235° (SW) 11:31:08 437.485
DELFI C3 23 Nov 11:34:11 11:37:07 20° 296° (WNW) 11:40:02 145.870
DUCHIFAT 1 23 Nov 11:36:11 11:40:19 56° 72° (ENE) 11:44:26 145.980
AO-85 23 Nov 11:42:49 11:46:59 34° 42° (NE) 11:51:27 145.980
AO-91 23 Nov 11:45:42 11:48:51 16° 58° (ENE) 11:51:57 145.960
EO-79 23 Nov 11:46:33 11:50:48 89° 256° (WSW) 11:55:03 145.935-145.965
NANOSAT C BR1 23 Nov 11:48:06 11:52:20 85° 74° (ENE) 11:56:34 145.865
AIST 2D 23 Nov 11:53:16 11:56:02 22° 266° (W) 11:58:49 435.315
Gurwin Techsat 1B 23 Nov 11:53:59 11:56:55 15° 55° (NE) 11:59:50 435.225
EO-88 23 Nov 12:01:39 12:04:02 17° 296° (WNW) 12:06:25 145.990 - 145.960
POLYITAN 1 23 Nov 12:02:41 12:06:52 61° 259° (W) 12:11:04 437.675
Max Valier Satellite 23 Nov 12:10:35 12:11:21 11° 300° (WNW) 12:12:08 145.860
FALCONSAT 3 23 Nov 12:14:53 12:16:25 12° 188° (S) 12:17:58 435.103
AO-7 23 Nov 12:16:04 12:19:48 14° 35° (NE) 12:23:32 .
LO-87 23 Nov 12:16:58 12:20:31 70° 285° (WNW) 12:24:01 145.935 - 145.965
BUGSAT 1 23 Nov 12:19:00 12:22:57 41° 70° (ENE) 12:26:51 437.445
ESTCUBE 1 23 Nov 12:23:56 12:28:30 84° 103° (ESE) 12:33:03 437.505/2401.250
QB50P2 23 Nov 12:26:46 12:30:33 31° 264° (W) 12:34:21 145.880/145.840
O/OREOS (USA 219) 23 Nov 12:26:59 12:29:22 14° 98° (E) 12:31:46 437.305
VELOX 1 23 Nov 12:34:07 12:37:19 19° 92° (E) 12:40:29 145.980
BEESAT 2 23 Nov 12:40:58 12:44:43 38° 241° (WSW) 12:48:24 435.950
Oscar 19 23 Nov 12:45:37 12:50:31 48° 69° (ENE) 12:55:27 437.125/150
SPROUT 23 Nov 13:11:11 13:15:27 69° 103° (ESE) 13:19:39 437.525
DX 1 23 Nov 13:13:09 13:14:23 11° 88° (E) 13:15:35 434.975-435.025
DUCHIFAT 1 23 Nov 13:13:46 13:16:18 15° 270° (W) 13:18:51 145.980
M-CUBED/EXP-1 PRIME 23 Nov 13:14:16 13:17:06 21° 57° (ENE) 13:20:06 437.505
AO-91 23 Nov 13:19:07 13:24:32 85° 76° (ENE) 13:29:54 145.960
50 SAT 23 Nov 13:21:56 13:22:46 11° 90° (E) 13:23:37 437.505
AO-85 23 Nov 13:23:04 13:27:31 43° 240° (WSW) 13:32:15 145.980
NANOSAT C BR1 23 Nov 13:28:12 13:28:37 10° 273° (W) 13:29:02 145.865
Gurwin Techsat 1B 23 Nov 13:30:44 13:36:04 84° 74° (ENE) 13:41:26 435.225
UKube-1 23 Nov 13:48:28 13:51:13 16° 91° (E) 13:53:57 .
BUGSAT 1 23 Nov 13:55:20 13:58:27 20° 267° (W) 14:01:34 437.445
ESTCUBE 1 23 Nov 14:02:26 14:04:40 14° 302° (WNW) 14:06:54 437.505/2401.250
AO-7 23 Nov 14:02:48 14:10:30 45° 58° (ENE) 14:18:15 .
O/OREOS (USA 219) 23 Nov 14:03:34 14:08:10 73° 297° (WNW) 14:12:47 437.305
VELOX 1 23 Nov 14:09:42 14:14:02 50° 290° (WNW) 14:18:20 145.980
Oscar 19 23 Nov 14:25:54 14:30:05 25° 267° (W) 14:34:17 437.125/150
NO-84 23 Nov 14:36:38 14:39:41 25° 131° (SE) 14:42:54 435.350 FM
ITAMSAT 1 23 Nov 14:43:48 14:48:37 39° 66° (ENE) 14:53:28 435.822/435.867
DX 1 23 Nov 14:46:45 14:51:09 84° 289° (WNW) 14:55:32 434.975-435.025
M-CUBED/EXP-1 PRIME 23 Nov 14:47:46 14:51:13 39° 257° (WSW) 14:54:58 437.505
SPROUT 23 Nov 14:48:28 14:50:48 15° 300° (WNW) 14:53:08 437.525
50 SAT 23 Nov 14:52:00 14:55:08 46° 287° (WNW) 14:58:12 437.505
AO-91 23 Nov 14:58:24 15:01:33 16° 273° (W) 15:04:41 145.960
Gurwin Techsat 1B 23 Nov 15:13:48 15:16:41 15° 272° (W) 15:19:37 435.225
UKube-1 23 Nov 15:23:19 15:27:35 56° 289° (WNW) 15:31:48 .
MOZHAYETS 4 23 Nov 15:41:11 15:45:36 47° 99° (E) 15:50:00
BEESAT 23 Nov 15:42:28 15:46:51 36° 97° (E) 15:51:13 436.000
O/OREOS (USA 219) 23 Nov 15:46:18 15:48:26 13° 317° (NW) 15:50:35 437.305
YUBILEINY 23 Nov 15:46:52 15:54:50 35° 66° (ENE) 16:02:44 435.215
ITUPSAT 1 23 Nov 15:53:53 15:58:28 45° 99° (E) 16:03:01 437.325
AO-7 23 Nov 15:55:14 16:03:12 50° 259° (W) 16:11:15 .
DOVE 4 23 Nov 15:55:32 16:00:03 32° 65° (ENE) 16:04:43 437.250
CUBESAT XI-V 23 Nov 16:00:24 16:03:50 20° 91° (E) 16:07:14 437.345
NO-84 23 Nov 16:13:00 16:16:44 61° 332° (NNW) 16:20:44 435.350 FM
ITAMSAT 1 23 Nov 16:23:29 16:28:08 32° 264° (W) 16:32:49 435.822/435.867
DX 1 23 Nov 16:25:09 16:26:36 11° 304° (NW) 16:28:04 434.975-435.025
CUTE-I 23 Nov 16:36:26 16:40:05 19° 57° (ENE) 16:43:46 437.470
XW-2D 23 Nov 16:59:47 17:02:43 22° 66° (ENE) 17:05:41 145.860 - 145.880
HO-68 23 Nov 17:01:14 17:06:31 23° 52° (NE) 17:11:49 435.675
KKS-1 23 Nov 17:13:55 17:17:31 23° 94° (E) 17:21:04 437.445
XW-2B 23 Nov 17:14:18 17:17:35 30° 69° (ENE) 17:20:53 145.730 - 145.750
NUDT-PHONESAT 23 Nov 17:17:33 17:20:28 23° 67° (ENE) 17:23:24 437.300
MOZHAYETS 4 23 Nov 17:18:57 17:22:28 22° 297° (WNW) 17:25:59
BEESAT 23 Nov 17:20:23 17:24:32 30° 295° (WNW) 17:28:39 436.000
STARS 23 Nov 17:31:08 17:33:34 14° 90° (E) 17:35:58 437.465
ITUPSAT 1 23 Nov 17:32:12 17:36:03 25° 297° (WNW) 17:39:53 437.325
DOVE 4 23 Nov 17:32:47 17:37:35 40° 264° (W) 17:42:34 437.250
CUBESAT XI-V 23 Nov 17:36:56 17:41:30 53° 289° (WNW) 17:46:04 437.345
SEEDS 23 Nov 17:37:45 17:38:45 11° 58° (ENE) 17:39:46 437.485
XW-2C 23 Nov 17:39:37 17:43:17 59° 73° (ENE) 17:47:00 145.795 - 145.815
YUBILEINY 23 Nov 17:43:30 17:52:11 62° 268° (W) 18:00:48 435.215
LilacSat-2 23 Nov 17:45:02 17:48:46 75° 75° (ENE) 17:52:34 437.200
XW-2F 23 Nov 17:47:40 17:51:21 69° 75° (ENE) 17:55:05 145.980 - 146.000
NO-84 23 Nov 17:51:11 17:54:40 28° 353° (N) 17:58:18 435.350 FM
RS-15 23 Nov 17:57:32 18:08:23 39° 107° (ESE) 18:19:10 29.354- 29.394
KAITUO 1B 23 Nov 18:10:41 18:14:22 81° 257° (WSW) 18:18:06 145.475/437.950
CUTE-I 23 Nov 18:14:10 18:19:32 77° 256° (WSW) 18:24:57 437.470
XW-2D 23 Nov 18:33:24 18:36:44 31° 264° (W) 18:40:07 145.860 - 145.880
CUBEBUG 2 23 Nov 18:34:02 18:38:13 38° 69° (ENE) 18:42:17 437.445
CUTE 1.7 + AOD 2 23 Nov 18:44:38 18:48:49 76° 76° (ENE) 18:53:03 437.475
HO-68 23 Nov 18:46:09 18:53:22 90° 66° (ENE) 19:00:38 435.675
XW-2B 23 Nov 18:48:48 18:51:46 22° 266° (W) 18:54:47 145.730 - 145.750
KKS-1 23 Nov 18:50:01 18:54:12 41° 292° (WNW) 18:58:22 437.445
NUDT-PHONESAT 23 Nov 18:51:01 18:54:12 28° 264° (W) 18:57:25 437.300
STARS 23 Nov 19:05:58 19:10:21 65° 288° (WNW) 19:14:40 437.465
AAUSAT CUBESAT 2 23 Nov 19:07:58 19:11:47 37° 70° (ENE) 19:15:39 437.432
ZACube-1 23 Nov 19:09:22 19:12:58 27° 67° (ENE) 19:16:31 437.345
SEEDS 23 Nov 19:09:33 19:13:43 86° 77° (ENE) 19:17:57 437.485
XW-2C 23 Nov 19:16:29 19:17:51 12° 271° (W) 19:19:12 145.795 - 145.815
FO-29 23 Nov 19:24:20 19:27:17 12° 78° (ENE) 19:30:10 435.910
UWE-3 23 Nov 19:24:39 19:29:01 70° 74° (ENE) 19:33:18 435.000/436.395/437.385
XW-2A 23 Nov 19:28:25 19:31:42 70° 75° (ENE) 19:35:01 145.665 - 145.685
NO-84 23 Nov 19:29:07 19:32:51 32° 14° (NNE) 19:36:42 435.350 FM
STRAND 1 23 Nov 19:39:20 19:43:58 34° 96° (E) 19:48:35 437.568
YUBILEINY 23 Nov 19:43:33 19:47:00 13° 291° (WNW) 19:50:27 435.215
AO-73 23 Nov 19:57:49 20:02:04 74° 74° (ENE) 20:06:15 145.935
CUTE-I 23 Nov 19:58:55 20:00:28 11° 275° (W) 20:02:02 437.470
RS-15 23 Nov 20:07:40 20:20:03 76° 311° (NW) 20:32:18 29.354- 29.394
ISS 23 Nov 20:08:38 20:10:54 17° 137° (SE) 20:13:10 437.550
Oscar 11 23 Nov 20:10:53 20:15:08 69° 75° (ENE) 20:19:26 .
CUBEBUG 2 23 Nov 20:11:09 20:14:55 25° 266° (W) 20:18:35 437.445
CUTE 1.7 + AOD 2 23 Nov 20:23:49 20:25:11 11° 273° (W) 20:26:34 437.475
HO-68 23 Nov 20:37:09 20:42:02 19° 272° (W) 20:46:57 435.675
AAUSAT CUBESAT 2 23 Nov 20:44:09 20:47:22 22° 267° (W) 20:50:37 437.432
ZACube-1 23 Nov 20:45:19 20:49:10 32° 264° (W) 20:52:58 437.345
SO-50 23 Nov 20:45:44 20:48:20 15° 110° (ESE) 20:50:56 436.795
DELFI C3 23 Nov 20:46:40 20:50:18 35° 69° (ENE) 20:53:57 145.870
nSIGHT-1 23 Nov 20:50:23 20:53:27 44° 147° (SSE) 20:56:33 .
UWE-3 23 Nov 21:03:51 21:05:56 13° 271° (W) 21:07:58 435.000/436.395/437.385
FO-29 23 Nov 21:06:10 21:13:58 61° 99° (E) 21:21:15 435.910
NO-84 23 Nov 21:06:25 21:10:38 86° 33° (NNE) 21:14:55 435.350 FM
EO-88 23 Nov 21:07:37 21:10:45 28° 69° (ENE) 21:13:55 145.990 - 145.960
Max Valier Satellite 23 Nov 21:15:44 21:19:15 49° 73° (ENE) 21:22:48 145.860
STRAND 1 23 Nov 21:18:31 21:23:09 35° 294° (WNW) 21:27:45 437.568
AO-73 23 Nov 21:37:14 21:38:47 12° 272° (W) 21:40:20 145.935
ISS 23 Nov 21:43:44 21:47:01 88° 332° (NNW) 21:50:18 437.550
Oscar 11 23 Nov 21:49:46 21:51:46 13° 272° (W) 21:53:46 .
ESTCUBE 1 23 Nov 21:51:52 21:54:23 15° 59° (ENE) 21:56:54 437.505/2401.250
DELFI C3 23 Nov 22:22:02 22:25:07 22° 267° (W) 22:28:15 145.870
RS-15 23 Nov 22:23:36 22:34:51 38° 341° (NNW) 22:45:49 29.354- 29.394
SO-50 23 Nov 22:23:44 22:28:12 76° 309° (NW) 22:32:45 436.795
nSIGHT-1 23 Nov 22:26:35 22:29:42 47° 346° (NNW) 22:32:50 .
O/OREOS (USA 219) 23 Nov 22:31:25 22:35:50 46° 59° (ENE) 22:40:10 437.305
EO-88 23 Nov 22:41:32 22:44:24 22° 266° (W) 22:47:18 145.990 - 145.960
UNISAT 6 23 Nov 22:41:51 22:46:09 84° 106° (ESE) 22:50:24 437.425
NO-84 23 Nov 22:44:29 22:47:35 20° 231° (SW) 22:50:40 435.350 FM
TIGRISAT 23 Nov 22:45:21 22:49:38 83° 101° (E) 22:53:53 435.000
PRISM 23 Nov 22:46:02 22:49:48 31° 97° (E) 22:53:30 437.425
Max Valier Satellite 23 Nov 22:51:35 22:53:22 13° 270° (W) 22:55:10 145.860
FO-29 23 Nov 22:51:36 22:58:34 36° 300° (WNW) 23:05:13 435.910
LO-87 23 Nov 22:55:11 22:58:46 71° 75° (ENE) 23:02:22 145.935 - 145.965
AIST 2D 23 Nov 23:14:29 23:17:12 20° 94° (E) 23:19:55 435.315
ISS 23 Nov 23:20:39 23:23:45 37° 355° (N) 23:26:50 437.550
PCSat 23 Nov 23:24:56 23:29:06 23° 108° (ESE) 23:33:16 145.827
ESTCUBE 1 23 Nov 23:26:08 23:30:36 75° 257° (WSW) 23:35:08 437.505/2401.250
EO-79 23 Nov 23:29:58 23:31:30 12° 88° (E) 23:33:01 145.935-145.965
NANOSAT C BR1 23 Nov 23:31:41 23:32:36 11° 87° (E) 23:33:31 145.865
VELOX 1 23 Nov 23:33:58 23:37:38 25° 64° (ENE) 23:41:17 145.980
POLYITAN 1 23 Nov 23:45:06 23:47:53 17° 91° (E) 23:50:39 437.675
nSIGHT-1 24 Nov 00:03:19 00:06:20 36° 5° (N) 00:09:21 .
SO-50 24 Nov 00:06:21 00:09:26 18° 331° (NNW) 00:12:32 436.795
SPROUT 24 Nov 00:06:53 00:11:10 76° 73° (ENE) 00:15:27 437.525
QB50P2 24 Nov 00:07:57 00:11:44 32° 96° (E) 00:15:30 145.880/145.840
DX 1 24 Nov 00:10:50 00:13:31 16° 60° (ENE) 00:16:12 434.975-435.025
O/OREOS (USA 219) 24 Nov 00:11:27 00:14:56 22° 258° (WSW) 00:18:23 437.305
UNISAT 6 24 Nov 00:20:29 00:22:13 12° 302° (WNW) 00:23:56 437.425
PRISM 24 Nov 00:21:26 00:24:58 27° 294° (WNW) 00:28:27 437.425
TIGRISAT 24 Nov 00:23:58 00:25:42 12° 302° (WNW) 00:27:25 435.000
RS-15 24 Nov 00:40:30 00:51:30 36° 15° (NNE) 01:02:00 29.354- 29.394
UKube-1 24 Nov 00:45:33 00:48:51 22° 63° (ENE) 00:52:09 .
AIST 2D 24 Nov 00:47:19 00:50:24 29° 291° (WNW) 00:53:29 435.315
DUCHIFAT 1 24 Nov 00:52:15 00:56:26 66° 103° (ESE) 01:00:34 145.980
Oscar 19 24 Nov 00:55:40 00:57:56 13° 87° (E) 01:00:12 437.125/150
ISS 24 Nov 00:57:26 01:00:38 48° 15° (NNE) 01:03:49 437.550
EO-79 24 Nov 01:03:33 01:07:46 73° 285° (WNW) 01:11:55 145.935-145.965
NANOSAT C BR1 24 Nov 01:04:40 01:08:51 80° 286° (WNW) 01:13:02 145.865
PCSat 24 Nov 01:06:40 01:12:02 63° 307° (NW) 01:17:27 145.827
AO-91 24 Nov 01:08:37 01:10:52 14° 86° (E) 01:12:58 145.960
VELOX 1 24 Nov 01:09:44 01:13:53 38° 262° (W) 01:18:04 145.980
POLYITAN 1 24 Nov 01:19:53 01:23:57 49° 289° (WNW) 01:27:59 437.675
50 SAT 24 Nov 01:21:10 01:24:24 81° 70° (ENE) 01:27:38 437.505
ITUPSAT 1 24 Nov 01:29:26 01:31:06 12° 54° (NE) 01:32:45 437.325
BUGSAT 1 24 Nov 01:32:32 01:36:26 44° 99° (E) 01:40:16 437.445
nSIGHT-1 24 Nov 01:39:35 01:42:49 88° 25° (NNE) 01:46:01 .
QB50P2 24 Nov 01:43:53 01:47:26 27° 294° (WNW) 01:50:57 145.880/145.840
Gurwin Techsat 1B 24 Nov 01:44:15 01:48:41 26° 93° (E) 01:53:04 435.225
DX 1 24 Nov 01:44:51 01:49:12 66° 258° (WSW) 01:53:35 434.975-435.025
SPROUT 24 Nov 01:45:59 01:47:34 12° 272° (W) 01:49:09 437.525
UKube-1 24 Nov 02:20:28 02:24:35 44° 260° (W) 02:28:46 .
M-CUBED/EXP-1 PRIME 24 Nov 02:24:22 02:25:40 11° 92° (E) 02:26:59 437.505
DUCHIFAT 1 24 Nov 02:29:18 02:31:35 15° 300° (WNW) 02:33:52 145.980
Oscar 19 24 Nov 02:32:47 02:37:59 89° 107° (ESE) 02:43:10 437.125/150
ISS 24 Nov 02:33:58 02:37:07 44° 214° (SW) 02:40:14 437.550
BEESAT 2 24 Nov 02:35:32 02:38:03 16° 112° (ESE) 02:40:36 435.950
AO-91 24 Nov 02:43:23 02:47:58 66° 287° (WNW) 02:52:01 145.960
NANOSAT C BR1 24 Nov 02:43:43 02:43:49 10° 303° (WNW) 02:43:56 145.865
MOZHAYETS 4 24 Nov 02:45:42 02:50:12 64° 73° (ENE) 02:54:44
BEESAT 24 Nov 02:51:30 02:56:11 60° 71° (ENE) 03:00:54 436.000
BEESAT 3 24 Nov 02:52:00 02:55:59 74° 125° (SE) 03:00:00 437.485
PCSat 24 Nov 02:52:58 02:56:32 17° 330° (NNW) 03:00:06 145.827
RS-15 24 Nov 02:54:30 03:06:32 70° 46° (NE) 03:17:52 29.354- 29.394
ITUPSAT 1 24 Nov 03:03:19 03:08:06 75° 73° (ENE) 03:12:53 437.325
CUBESAT XI-V 24 Nov 03:06:28 03:10:20 27° 65° (ENE) 03:14:14 437.345
BUGSAT 1 24 Nov 03:08:38 03:11:29 19° 297° (WNW) 03:14:19 437.445
nSIGHT-1 24 Nov 03:16:31 03:18:40 17° 223° (SW) 03:20:49 .
Gurwin Techsat 1B 24 Nov 03:23:44 03:28:52 49° 292° (WNW) 03:33:57 435.225
SO-50 24 Nov 03:32:23 03:34:23 13° 21° (NNE) 03:36:24 436.795
AO-85 24 Nov 03:41:02 03:44:18 26° 115° (ESE) 03:47:42 145.980
AO-7 24 Nov 03:52:43 04:00:44 48° 101° (E) 04:08:43 .
M-CUBED/EXP-1 PRIME 24 Nov 03:56:02 04:00:38 84° 109° (ESE) 04:05:18 437.505
BEESAT 2 24 Nov 04:11:20 04:15:20 62° 310° (NW) 04:19:23 435.950
Oscar 19 24 Nov 04:13:37 04:16:36 16° 304° (NW) 04:19:35 437.125/150
KKS-1 24 Nov 04:14:34 04:18:32 32° 66° (ENE) 04:22:32 437.445
MOZHAYETS 4 24 Nov 04:25:05 04:27:48 15° 271° (W) 04:30:31
STARS 24 Nov 04:30:13 04:33:30 21° 62° (ENE) 04:36:47 437.465
BEESAT 3 24 Nov 04:31:02 04:33:58 19° 325° (NW) 04:36:54 437.485
BEESAT 24 Nov 04:31:06 04:34:21 18° 269° (W) 04:37:36 436.000
ITAMSAT 1 24 Nov 04:32:16 04:37:30 70° 103° (ESE) 04:42:40 435.822/435.867
CUBESAT XI-V 24 Nov 04:43:17 04:47:33 37° 263° (W) 04:51:53 437.345
ITUPSAT 1 24 Nov 04:43:54 04:46:28 14° 271° (W) 04:49:02 437.325
YUBILEINY 24 Nov 04:52:27 05:00:03 35° 83° (E) 05:07:42 435.215
RS-15 24 Nov 05:07:40 05:18:19 42° 252° (WSW) 05:28:29 29.354- 29.394
SO-50 24 Nov 05:11:45 05:16:06 38° 43° (NE) 05:20:29 436.795
AO-85 24 Nov 05:20:49 05:24:31 37° 316° (NW) 05:28:26 145.980
STRAND 1 24 Nov 05:23:12 05:24:51 12° 53° (NE) 05:26:31 437.568
DOVE 4 24 Nov 05:28:17 05:33:20 50° 98° (E) 05:38:06 437.250
M-CUBED/EXP-1 PRIME 24 Nov 05:31:43 05:34:25 16° 307° (NW) 05:37:10 437.505
FO-29 24 Nov 05:43:14 05:44:25 10° 39° (NE) 05:45:37 435.910
AO-7 24 Nov 05:45:39 05:53:30 48° 301° (WNW) 06:01:21 .
KKS-1 24 Nov 05:51:07 05:55:04 30° 264° (W) 05:59:04 437.445
BEESAT 2 24 Nov 05:51:43 05:53:52 14° 331° (NNW) 05:56:01 435.950
XW-2D 24 Nov 06:02:35 06:05:32 21° 93° (E) 06:08:28 145.860 - 145.880
STARS 24 Nov 06:05:12 06:09:30 49° 260° (W) 06:13:50 437.465
HO-68 24 Nov 06:12:40 06:16:14 14° 85° (E) 06:19:47 435.675
ITAMSAT 1 24 Nov 06:12:46 06:16:25 20° 302° (WNW) 06:20:04 435.822/435.867
XW-2B 24 Nov 06:17:15 06:20:36 28° 96° (E) 06:23:56 145.730 - 145.750
NUDT-PHONESAT 24 Nov 06:17:43 06:20:33 20° 93° (E) 06:23:22 437.300
PCSat 24 Nov 06:25:54 06:28:27 13° 23° (NNE) 06:30:58 145.827
CUTE-I 24 Nov 06:28:14 06:33:06 34° 96° (E) 06:37:54 437.470
CUTE 1.7 + AOD 2 24 Nov 06:28:35 06:29:43 11° 87° (E) 06:30:51 437.475
XW-2C 24 Nov 06:42:46 06:46:33 57° 100° (E) 06:50:19 145.795 - 145.815
YUBILEINY 24 Nov 06:47:44 06:56:22 60° 285° (WNW) 07:05:07 435.215
LilacSat-2 24 Nov 06:49:00 06:52:51 74° 102° (ESE) 06:56:43 437.200
XW-2F 24 Nov 06:50:15 06:54:02 66° 101° (ESE) 06:57:50 145.980 - 146.000
SEEDS 24 Nov 06:51:55 06:53:35 12° 88° (E) 06:55:15 437.485
SO-50 24 Nov 06:52:19 06:56:33 35° 242° (WSW) 07:00:48 436.795
STRAND 1 24 Nov 06:57:59 07:03:05 66° 72° (ENE) 07:08:13 437.568
AO-85 24 Nov 07:05:01 07:06:10 11° 340° (NNW) 07:07:21 145.980
DOVE 4 24 Nov 07:06:29 07:10:39 25° 298° (WNW) 07:14:40 437.250
KAITUO 1B 24 Nov 07:12:11 07:15:59 88° 287° (WNW) 07:19:46 145.475/437.950
UWE-3 24 Nov 07:13:46 07:14:20 10° 87° (E) 07:14:54 435.000/436.395/437.385
FO-29 24 Nov 07:20:54 07:27:17 39° 61° (ENE) 07:34:14 435.910
XW-2D 24 Nov 07:36:19 07:39:46 33° 290° (WNW) 07:43:14 145.860 - 145.880
AO-7 24 Nov 07:40:15 07:44:17 15° 324° (NW) 07:48:19 .
AO-73 24 Nov 07:44:52 07:45:46 11° 87° (E) 07:46:40 145.935
NUDT-PHONESAT 24 Nov 07:51:07 07:54:27 32° 291° (WNW) 07:57:49 437.300
XW-2B 24 Nov 07:51:31 07:54:40 25° 293° (WNW) 07:57:49 145.730 - 145.750
Oscar 11 24 Nov 07:57:39 07:58:21 10° 87° (E) 07:59:04 .
CUBEBUG 2 24 Nov 07:57:43 08:01:49 53° 100° (E) 08:05:52 437.445
HO-68 24 Nov 07:58:00 08:05:13 73° 105° (ESE) 08:12:23 435.675
CUTE 1.7 + AOD 2 24 Nov 08:01:49 08:06:07 82° 287° (WNW) 08:10:24 437.475
CUTE-I 24 Nov 08:08:14 08:13:11 38° 294° (WNW) 08:18:05 437.470
PCSat 24 Nov 08:08:16 08:13:23 40° 47° (NE) 08:18:29 145.827
UNISAT 6 24 Nov 08:09:11 08:11:30 14° 59° (ENE) 08:13:47 437.425
TIGRISAT 24 Nov 08:12:35 08:14:52 14° 59° (ENE) 08:17:07 435.000
XW-2C 24 Nov 08:18:16 08:20:17 14° 298° (WNW) 08:22:18 145.795 - 145.815
XW-2A 24 Nov 08:19:13 08:22:29 45° 100° (E) 08:25:44 145.665 - 145.685
AAUSAT CUBESAT 2 24 Nov 08:21:42 08:25:46 46° 99° (E) 08:29:47 437.432
LilacSat-2 24 Nov 08:25:13 08:26:34 12° 300° (WNW) 08:27:56 437.200
SEEDS 24 Nov 08:25:31 08:29:46 74° 285° (WNW) 08:34:00 437.485
XW-2F 24 Nov 08:25:59 08:27:39 13° 299° (WNW) 08:29:18 145.980 - 146.000
